Regional Weather Roundup
Issued by NWS

Home | Current Version | Previous Version | Graphics & Text | Print | Product List | Glossary On
Versions: 1 2 3 4 5 6 7 8 9 10 11 12 13 14 15 16 17 18 19 20 21 22 23 24 25 26 27 28 29 30 31 32 33 34 35 36 37 38 39 40 41 42 43 44 45 46 47 48 49 50
000
ASUS43 KDMX 271508
RWRIA

WEATHER ROUNDUP FOR IOWA
NATIONAL WEATHER SERVICE DES MOINES IA
1000 AM CDT WED JUL 27 2016

NOTE: "FAIR" INDICATES FEW OR NO CLOUDS BELOW 12,000 FEET WITH NO
SIGNIFICANT WEATHER AND/OR OBSTRUCTIONS TO VISIBILITY.

* - THESE STATIONS ARE NOT NWS STATIONS...THUS NOT UNDER NWS
QUALITY CONTROL.  THEY ALSO DO NOT REPORT WEATHER SUCH
AS PRECIPITATION OR FOG.

IAZ001>003-012>014-020>022-031>034-043>046-271600-
   NORTHWEST IOWA

CITY           SKY/WX    TMP DP  RH WIND       PRES   REMARKS
CARROLL *      CLOUDY    72  68  88 CALM      30.01F
CHEROKEE *     DRIZZLE   70  69  98 SW3       30.01S
DENISON *      CLOUDY    70  68  94 CALM      29.99F
LE MARS *      CLOUDY    75  68  78 S3        30.02R
SHELDON *      CLOUDY    75  70  83 S10       29.99R
SIOUX CITY     CLOUDY    74  68  81 SE10      30.00S
SPENCER        CLOUDY    72  67  84 S8        29.99F
STORM LAKE *   CLOUDY    70  68  94 SW3       30.02S
$$

IAZ055>058-069>071-079>083-090>094-271600-
   SOUTHWEST IOWA

CITY           SKY/WX    TMP DP  RH WIND       PRES   REMARKS
ATLANTIC *     PTSUNNY   75  68  78 W7        30.02R
CLARINDA *       N/A     79  72  78 MISG      30.02R HX  82
COUNCIL BLFS * CLOUDY    77  70  78 SW9       30.02S
CRESTON *      SUNNY     77  68  73 S8        30.02R
HARLAN  *      CLOUDY    72  70  94 S3        30.05S
LAMONI         SUNNY     77  67  71 S8        30.00R
RED OAK *      PTSUNNY   77  70  78 SW5       30.02R
SHENANDOAH *   PTSUNNY   75  72  88 CALM      30.02R
$$

IAZ047>049-059>061-072>074-084-271600-
   CENTRAL IOWA

CITY           SKY/WX    TMP DP  RH WIND       PRES   REMARKS
AMES           CLOUDY    76  70  82 SE6       30.01R
ANKENY *         N/A    N/A N/A N/A MISG        N/A
BOONE *        CLOUDY    73  68  83 SE5       30.01R
CHARITON *       N/A    N/A N/A N/A MISG        N/A
DES MOINES     CLOUDY    78  67  68 S5        30.00R HX  80
GRINNELL*      MOSUNNY   79  67  66 E6        30.02S HX  81
KNOXVILLE *    MOSUNNY   77  68  73 SE5       29.99S
MARSHALLTOWN   MOSUNNY   78  69  73 SE7       30.01S HX  80
NEWTON *       MOSUNNY   77  68  73 E8        30.00S
PELLA *        MOSUNNY   78  68  72 E6        30.01F HX  80
PERRY *          N/A     75  70  85 S3        30.02R
$$

IAZ004>006-015-016-023>025-035-036-271600-
   NORTH CENTRAL IOWA

CITY           SKY/WX    TMP DP  RH WIND       PRES   REMARKS
ALGONA *       CLOUDY    72  66  83 S9        30.00F
ESTHERVILLE    PTSUNNY   70  68  93 S10       29.98F
FORT DODGE *   CLOUDY    72  68  88 SW5       30.04R
MASON CITY     CLOUDY    76  68  76 SE7       30.02F
FOREST CITY *    N/A     73  68  83 S6        30.01S
IOWA FALLS *     N/A     77  68  74 SE3       30.03R
$$

IAZ007>011-017>019-026>030-037>042-050>054-066-271600-
   NORTHEAST IOWA

CITY           SKY/WX    TMP DP  RH WIND       PRES   REMARKS
CEDAR RAPIDS   SUNNY     79  70  74 SE3       30.01F HX  82
CHARLES CITY * SUNNY     77  72  83 SE7       30.02F
CLINTON *      SUNNY     79  70  74 CALM      30.03S HX  82
DECORAH *      SUNNY     77  68  73 CALM      30.03F
DUBUQUE        SUNNY     79  66  64 W3        30.05R HX  81
MONTICELLO *   MOSUNNY   79  70  73 W5        30.04R HX  81
WATERLOO       MOSUNNY   79  66  64 CALM      30.01F HX  81
$$

IAZ064-065-067-068-078-271600-
   EAST CENTRAL IOWA

CITY           SKY/WX    TMP DP  RH WIND       PRES   REMARKS
DAVENPORT      MOSUNNY   79  68  69 CALM      30.03S HX  81
IOWA CITY      MOSUNNY   80  66  62 CALM      30.02F HX  82
MT. PLEASANT * MOSUNNY   82  72  72 CALM      30.01F HX  87
MUSCATINE *    SUNNY     79  70  73 CALM      30.02R HX  81
QUAD CITIES    SUNNY     80  69  69 SE5       30.01S HX  83
$$

IAZ062-063-075>077-085>089-095>099-271600-
   SOUTHEAST IOWA

CITY           SKY/WX    TMP DP  RH WIND       PRES   REMARKS
BURLINGTON     PTSUNNY   79  69  71 CALM      30.02R HX  81
FAIRFIELD *    MOSUNNY   79  68  69 NE5       30.00F HX  81
KEOKUK *       PTSUNNY   79  72  78 CALM      30.01R HX  82
OSKALOOSA *      N/A     77  69  76 E3        30.01S
CENTERVILLE *    N/A     79  68  69 CALM      30.02R HX  81
OTTUMWA        SUNNY     78  67  68 E6        29.99  HX  80
WASHINGTON *   PTSUNNY   77  70  78 CALM      30.02F
$$

ABBREVIATIONS USED IN REMARKS
   TC - TEMPERATURES IN CELSIUS
  WCI - WIND CHILL INDEX
   HX - HEAT INDEX
  VSB - VISIBILITY
$$





USA.gov is the U.S. government's official web portal to all federal, state and local government web resources and services.